Location: Mahannah Oil Field
(37.4664°N, 96.6003°W)
Time: 03:52:48
(UTC+00:00)

X-37B - Pass Details

Date: 03 December 2020
Orbit: 383 x 391 km, 45.1° (Epoch: 22 January)

Event Time Altitude Azimuth Distance (km) Brightness Sun altitude
Rises 00:04:58 0° 281° (WNW) 2,257 5.6 -11.1°
Reaches altitude 10° 00:07:20 10° 298° (WNW) 1,405 4.0 -11.6°
Maximum altitude 00:09:53 22° 352° (N) 905 2.3 -12.1°
Enters shadow 00:11:28 16° 31° (NNE) 1,124 2.5 -12.4°
